Weather in Vasai-Virar

India     19°27′28″N   72°48′15″E
temp.,
°C
wind,
m/s
gust,
m/s
humid.,
%
clouds,
%
prec.,
mm/h
press.,
hPa
HPBL,
m
24 september, fri
fri2423:30+27w118089 0.3 1008209
02:30+26sse118196 0.3 100690
05:30+26se228234 0.5 1007140
08:30+27sse347945 0.0 1009356
11:30+29ssw4467100 0.1 1008870
14:30+29sw557081 0.0 1005769
17:30+28sw45755 0.0 1006404
20:30+27w348221 0.0 1008222
25 september, sat
sat2523:30+27wsw348313 0.3 1008220
02:30+27w238223 0.6 1007238
05:30+26w238263 0.8 1007272
08:30+28wsw237635 0.1 1009676
11:30+29wsw557053 0.1 1009966
14:30+29w557112 0.0 10071003
17:30+28w457713 0.1 1006845
20:30+27w358153 0.0 1007453
26 september, sun
sun2623:30+27wsw3481100 0.1 1007408
02:30+26wsw4583100 0.2 1006403
05:30+26wsw3484100 0.6 1006339
08:30+27wsw3481100 1.1 1007618
11:30+28wsw4478100 2.6 1007680
14:30+27w5681100 1.3 1004665
17:30+27w4683100 3.0 1005507
20:30+26w3486100 3.0 1006247
27 september, mon
mon2723:30+26wnw2288100 6.5 1005163
02:30+26wnw1288100 3.0 1004186
05:30+25nw2290100 6.6 1004182
08:30+26n118893 1.6 1006225
11:30+27wnw228241 3.4 1005476
14:30+28w447923 1.3 1002694
17:30+27w4579100 1.6 1002697
20:30+26wnw238891 2.8 1004158
28 september, tue
tue2823:30+26ese0086100 5.7 100449
02:30+26s1188100 1.4 100299
05:30+26sse2388100 3.0 1002160
08:30+26sse3489100 3.3 1005284
11:30+26s4591100 8.0 1005340
14:30+26ssw4585100 3.7 1002572
17:30+26ssw238785 7.0 1002252
20:30+26s3587100 2.1 1005218